| time (UTC) | temp F | wind direction | speed MPH | gust MPH | rain 1hr in | rain 24hr in | rain mn in | humidity % | barometer mb |
| 20260905140040 | 81 | 187 | 5.0 | 9.0 | 0.00 | 0.00 | 0.00 | 74 | 1015.7 |
| 20260905134544 | 80 | 152 | 3.0 | 6.0 | 0.00 | 0.00 | 0.00 | 76 | 1015.7 |
| 20260905133043 | 78 | 0 | 0.0 | 3.0 | 0.00 | 0.00 | 0.00 | 77 | 1015.5 |
| 20260905131555 | 77 | 0 | 1.0 | 4.0 | 0.00 | 0.00 | 0.00 | 81 | 1015.3 |
| 20260905130043 | 73 | 103 | 0.0 | 1.0 | 0.00 | 0.00 | 0.00 | 86 | 1015.1 |
| 20260905124548 | 70 | 0 | 0.0 | 1.0 | 0.00 | 0.00 | 0.00 | 89 | 1015.0 |
| 20260905123050 | 68 | 0 | 0.0 | 1.0 | 0.00 | 0.00 | 0.00 | 90 | 1014.9 |
| 20260905121538 | 67 | 0 | 0.0 | 0.0 | 0.00 | 0.00 | 0.00 | 90 | 1014.7 |
| 20260905120042 | 67 | 0 | 0.0 | 1.0 | 0.00 | 0.00 | 0.00 | 90 | 1014.6 |
| 20260905114544 | 68 | 0 | 0.0 | 0.0 | 0.00 | 0.00 | 0.00 | 90 | 1014.5 |
| 20260905113041 | 68 | 0 | 0.0 | 1.0 | 0.00 | 0.00 | 0.00 | 89 | 1014.4 |
| 20260905111551 | 68 | 279 | 1.0 | 2.0 | 0.00 | 0.00 | 0.00 | 89 | 1014.6 |
| 20260905110042 | 69 | 0 | 0.0 | 1.0 | 0.00 | 0.00 | 0.00 | 89 | 1014.4 |
| 20260905104541 | 68 | 0 | 0.0 | 0.0 | 0.00 | 0.00 | 0.00 | 89 | 1014.5 |
| 20260905103036 | 68 | 0 | 0.0 | 0.0 | 0.00 | 0.00 | 0.00 | 87 | 1014.4 |
| 20260905101550 | 69 | 0 | 0.0 | 0.0 | 0.00 | 0.00 | 0.00 | 86 | 1014.4 |
| 20260905100042 | 70 | 0 | 0.0 | 1.0 | 0.00 | 0.00 | 0.00 | 86 | 1014.4 |
| 20260905094540 | 70 | 0 | 0.0 | 1.0 | 0.00 | 0.00 | 0.00 | 85 | 1014.4 |
| 20260905093040 | 71 | 0 | 0.0 | 0.0 | 0.00 | 0.00 | 0.00 | 84 | 1014.4 |
| 20260905091546 | 71 | 0 | 0.0 | 1.0 | 0.00 | 0.00 | 0.00 | 84 | 1014.4 |
| 20260905090043 | 71 | 0 | 0.0 | 2.0 | 0.00 | 0.00 | 0.00 | 83 | 1014.3 |
| 20260905084559 | 72 | 0 | 0.0 | 0.0 | 0.00 | 0.00 | 0.00 | 82 | 1014.3 |
| 20260905083036 | 72 | 0 | 0.0 | 1.0 | 0.00 | 0.00 | 0.00 | 81 | 1014.3 |
| 20260905081544 | 73 | 0 | 0.0 | 2.0 | 0.00 | 0.00 | 0.00 | 80 | 1014.3 |
| 20260905080044 | 73 | 97 | 0.0 | 1.0 | 0.00 | 0.00 | 0.00 | 79 | 1014.3 |
| 20260905074542 | 73 | 127 | 2.0 | 5.0 | 0.00 | 0.00 | 0.00 | 78 | 1014.2 |
| 20260905073037 | 74 | 116 | 3.0 | 5.0 | 0.00 | 0.00 | 0.00 | 76 | 1014.4 |
| 20260905071535 | 75 | 103 | 3.0 | 5.0 | 0.00 | 0.00 | 0.00 | 75 | 1014.4 |
| 20260905070042 | 75 | 0 | 0.0 | 3.0 | 0.00 | 0.00 | 0.00 | 73 | 1014.6 |
| 20260905064542 | 76 | 119 | 4.0 | 7.0 | 0.00 | 0.00 | 0.00 | 72 | 1014.7 |
| 20260905063039 | 76 | 138 | 4.0 | 6.0 | 0.00 | 0.00 | 0.00 | 71 | 1014.6 |
| 20260905061542 | 76 | 123 | 3.0 | 6.0 | 0.00 | 0.00 | 0.00 | 70 | 1014.7 |
| 20260905060044 | 77 | 110 | 3.0 | 8.0 | 0.00 | 0.00 | 0.00 | 68 | 1014.7 |
| 20260905054542 | 78 | 150 | 6.0 | 11.0 | 0.00 | 0.00 | 0.00 | 67 | 1014.7 |
| 20260905053042 | 78 | 132 | 5.0 | 8.0 | 0.00 | 0.00 | 0.00 | 67 | 1014.6 |
| 20260905051539 | 78 | 146 | 5.0 | 9.0 | 0.00 | 0.00 | 0.00 | 67 | 1014.5 |
| 20260905050043 | 78 | 127 | 4.0 | 9.0 | 0.00 | 0.00 | 0.00 | 66 | 1014.6 |
| 20260905044544 | 78 | 119 | 5.0 | 7.0 | 0.00 | 0.00 | 0.00 | 66 | 1014.5 |
| 20260905043046 | 78 | 108 | 4.0 | 6.0 | 0.00 | 0.00 | 0.00 | 65 | 1014.6 |
| 20260905041540 | 78 | 127 | 1.0 | 3.0 | 0.00 | 0.00 | 0.00 | 64 | 1014.5 |
| 20260905040044 | 79 | 148 | 3.0 | 5.0 | 0.00 | 0.00 | 0.00 | 63 | 1014.7 |
| 20260905034547 | 79 | 109 | 5.0 | 6.0 | 0.00 | 0.00 | 0.00 | 62 | 1014.7 |
| 20260905033044 | 80 | 125 | 5.0 | 9.0 | 0.00 | 0.00 | 0.00 | 61 | 1014.6 |
| 20260905031544 | 81 | 144 | 7.0 | 11.0 | 0.00 | 0.00 | 0.00 | 60 | 1014.5 |
| 20260905030042 | 81 | 134 | 6.0 | 11.0 | 0.00 | 0.00 | 0.00 | 59 | 1014.3 |
| 20260905024544 | 80 | 123 | 7.0 | 10.0 | 0.00 | 0.00 | 0.00 | 62 | 1014.0 |
| 20260905023045 | 79 | 136 | 5.0 | 9.0 | 0.00 | 0.00 | 0.00 | 65 | 1013.7 |
| 20260905021543 | 78 | 120 | 3.0 | 4.0 | 0.00 | 0.00 | 0.00 | 65 | 1013.6 |
| 20260905020049 | 79 | 113 | 2.0 | 3.0 | 0.00 | 0.00 | 0.00 | 64 | 1013.5 |
| 20260905014545 | 80 | 125 | 0.0 | 2.0 | 0.00 | 0.00 | 0.00 | 63 | 1013.4 |
| 20260905013036 | 81 | 127 | 2.0 | 3.0 | 0.00 | 0.00 | 0.00 | 62 | 1013.3 |
| 20260905011549 | 83 | 139 | 2.0 | 2.0 | 0.00 | 0.00 | 0.00 | 60 | 1013.3 |
| 20260905010036 | 84 | 176 | 1.0 | 4.0 | 0.00 | 0.00 | 0.00 | 58 | 1013.4 |
| 20260905004550 | 85 | 143 | 3.0 | 4.0 | 0.00 | 0.00 | 0.00 | 56 | 1013.4 |
| 20260905003039 | 86 | 122 | 3.0 | 7.0 | 0.00 | 0.00 | 0.00 | 54 | 1013.5 |
| 20260905001543 | 87 | 138 | 6.0 | 9.0 | 0.00 | 0.00 | 0.00 | 52 | 1013.5 |
| 20260905000045 | 89 | 159 | 5.0 | 10.0 | 0.00 | 0.00 | 0.00 | 53 | 1013.5 |
| 20260904234547 | 92 | 139 | 7.0 | 12.0 | 0.00 | 0.00 | 0.00 | 49 | 1013.3 |
| 20260904233056 | 93 | 146 | 7.0 | 12.0 | 0.00 | 0.00 | 0.00 | 49 | 1013.3 |
| 20260904231538 | 91 | 150 | 7.0 | 13.0 | 0.00 | 0.00 | 0.00 | 50 | 1013.2 |
| 20260904230043 | 90 | 139 | 8.0 | 14.0 | 0.00 | 0.00 | 0.00 | 49 | 1012.9 |
| 20260904224546 | 92 | 145 | 11.0 | 16.0 | 0.00 | 0.00 | 0.00 | 45 | 1012.9 |
| 20260904223044 | 92 | 140 | 12.0 | 19.0 | 0.00 | 0.00 | 0.00 | 44 | 1012.8 |
| 20260904221539 | 93 | 140 | 13.0 | 19.0 | 0.00 | 0.00 | 0.00 | 43 | 1012.5 |
| 20260904220043 | 92 | 141 | 10.0 | 17.0 | 0.00 | 0.00 | 0.00 | 45 | 1012.6 |
| 20260904214547 | 91 | 121 | 13.0 | 21.0 | 0.00 | 0.00 | 0.00 | 46 | 1012.7 |
| 20260904213044 | 91 | 93 | 15.0 | 22.0 | 0.00 | 0.00 | 0.00 | 48 | 1012.8 |
| 20260904211543 | 93 | 117 | 11.0 | 19.0 | 0.00 | 0.00 | 0.00 | 49 | 1013.1 |
| 20260904210042 | 92 | 110 | 10.0 | 17.0 | 0.00 | 0.00 | 0.00 | 48 | 1013.1 |
| 20260904204541 | 91 | 145 | 11.0 | 16.0 | 0.00 | 0.00 | 0.00 | 47 | 1013.3 |
| 20260904203045 | 91 | 133 | 10.0 | 16.0 | 0.00 | 0.00 | 0.00 | 48 | 1013.6 |
| 20260904201543 | 91 | 147 | 10.0 | 15.0 | 0.00 | 0.00 | 0.00 | 51 | 1013.7 |
| 20260904200051 | 91 | 110 | 9.0 | 14.0 | 0.00 | 0.00 | 0.00 | 53 | 1013.8 |
| 20260904194545 | 91 | 108 | 10.0 | 15.0 | 0.00 | 0.00 | 0.00 | 54 | 1014.0 |
| 20260904193047 | 91 | 115 | 5.0 | 13.0 | 0.00 | 0.00 | 0.00 | 54 | 1014.1 |
| 20260904191539 | 92 | 141 | 7.0 | 11.0 | 0.00 | 0.00 | 0.00 | 52 | 1014.1 |
| 20260904190044 | 91 | 160 | 5.0 | 15.0 | 0.00 | 0.00 | 0.00 | 53 | 1014.3 |
| 20260904184559 | 91 | 143 | 5.0 | 12.0 | 0.00 | 0.00 | 0.00 | 54 | 1014.3 |
| 20260904183043 | 90 | 203 | 5.0 | 10.0 | 0.00 | 0.00 | 0.00 | 56 | 1014.7 |
| 20260904181541 | 89 | 133 | 9.0 | 14.0 | 0.00 | 0.00 | 0.00 | 58 | 1015.0 |
| 20260904180056 | 88 | 115 | 6.0 | 13.0 | 0.00 | 0.00 | 0.00 | 59 | 1015.2 |
| 20260904174542 | 88 | 119 | 8.0 | 14.0 | 0.00 | 0.00 | 0.00 | 60 | 1015.3 |
| 20260904173045 | 89 | 122 | 9.0 | 13.0 | 0.00 | 0.00 | 0.00 | 57 | 1015.4 |
| 20260904171546 | 88 | 147 | 6.0 | 12.0 | 0.00 | 0.00 | 0.00 | 59 | 1015.5 |
| 20260904170043 | 87 | 158 | 5.0 | 13.0 | 0.00 | 0.00 | 0.00 | 62 | 1015.6 |
| 20260904164542 | 86 | 142 | 6.0 | 14.0 | 0.00 | 0.00 | 0.00 | 64 | 1015.7 |
| 20260904163054 | 85 | 151 | 7.0 | 12.0 | 0.00 | 0.00 | 0.00 | 64 | 1015.8 |
| 20260904161536 | 84 | 158 | 8.0 | 17.0 | 0.00 | 0.00 | 0.00 | 67 | 1016.0 |
| 20260904160044 | 83 | 155 | 8.0 | 12.0 | 0.00 | 0.00 | 0.00 | 69 | 1016.0 |
| 20260904154542 | 83 | 136 | 10.0 | 16.0 | 0.00 | 0.00 | 0.00 | 70 | 1016.0 |
| 20260904153048 | 82 | 140 | 8.0 | 14.0 | 0.00 | 0.00 | 0.00 | 72 | 1015.9 |
| 20260904151540 | 81 | 117 | 8.0 | 14.0 | 0.00 | 0.00 | 0.00 | 74 | 1015.7 |
| 20260904150045 | 80 | 148 | 9.0 | 15.0 | 0.00 | 0.00 | 0.00 | 76 | 1015.9 |
| 20260904144539 | 79 | 124 | 10.0 | 15.0 | 0.00 | 0.00 | 0.00 | 77 | 1015.9 |
| 20260904143038 | 80 | 137 | 11.0 | 16.0 | 0.00 | 0.00 | 0.00 | 77 | 1015.7 |
| 20260904141600 | 77 | 113 | 7.0 | 11.0 | 0.00 | 0.00 | 0.00 | 81 | 1015.5 |